Weather observations for the past three days for
Clarion
Imperial (Metric)
Date Time (cdt) Wind (mph) Vis. (mi.) Weather Sky Cond. Temperature (ºF) Relative Humidity Wind Chill (°F) Heat Index (°F) Pressure Precipitation (in)
Air Dwpt 6 hour altimeter (in) sea level (mb) 1 hr 3 hr 6 hr
Max. Min.
13 03:15 S 5 10.00 Fair CLR 68 68 100% 29.75 0.0
13 02:55 S 6 10.00 NULL NULL 68 68 100% 29.75 0.0
13 02:35 S 7 10.00 NULL NULL 69.8 68 94% 29.75 0.0
13 02:15 S 8 10.00 Fair CLR 69.8 66.2 88% 29.75 0.0
13 01:55 S 9 10.00 Fair CLR 71.6 66.2 83% 29.74 0.0
13 01:35 S 9 10.00 Fair CLR 73.4 66.2 78% 29.74 0.0
13 01:15 S 12 10.00 NULL NULL 73.4 66.2 78% 29.74 0.0
13 00:55 S 13 10.00 Partly Cloudy FEW041 SCT055 SCT080 75.2 66.2 74% 77 29.74 0.0
13 00:35 S 14 10.00 Partly Cloudy FEW043 SCT065 SCT080 75.2 66.2 74% 77 29.74 0.0
13 00:15 S 13 10.00 Partly Cloudy SCT065 SCT080 75.2 66.2 74% 77 29.75 0.0
12 23:55 S 12 10.00 A Few Clouds FEW080 75.2 66.2 74% 77 29.76 0.0
12 23:35 S 13 10.00 NULL NULL 77 66.2 69% 79 29.76 0.0
12 23:15 SE 12 10.00 NULL NULL 77 66.2 69% 79 29.76 0.0
12 22:55 SE 9 10.00 Partly Cloudy FEW065 FEW080 SCT090 77 66.2 69% 79 29.77 0.0
12 22:35 SE 7 10.00 Overcast FEW038 SCT075 OVC090 77 66.2 69% 79 29.77 0.0
12 22:15 E 6 10.00 Mostly Cloudy FEW037 SCT060 BKN070 77 66.2 69% 79 29.76 0.0
12 21:55 S 10 10.00 Mostly Cloudy FEW042 SCT060 BKN070 78.8 64.4 61% 81 29.76 0.0
12 21:35 S 14 10.00 Partly Cloudy FEW042 FEW060 SCT095 78.8 64.4 61% 81 29.75 0.0
12 21:15 S 13 10.00 Fair CLR 78.8 64.4 61% 81 29.75 0.0
12 20:55 S 14 10.00 Fair CLR 80.6 64.4 58% 82 29.74 0.0
12 20:35 S 13 G 20 10.00 Fair CLR 82.4 64.4 55% 84 29.74 0.0
12 20:15 S 14 G 20 7.00 Fair CLR 82.4 64.4 55% 84 29.74 0.0
12 19:55 S 14 10.00 Fair CLR 82.4 62.6 51% 83 29.75 0.0
12 19:35 S 15 G 22 10.00 Fair CLR 84.2 62.6 48% 85 29.76 0.0
12 19:15 S 16 10.00 Fair CLR 86 62.6 46% 87 29.77 0.0
12 18:55 S 17 10.00 Fair CLR 86 64.4 49% 87 29.78 0.0
12 18:35 S 21 10.00 Fair and Breezy CLR 87.8 64.4 46% 89 29.78 0.0
12 18:15 S 17 10.00 Fair CLR 87.8 64.4 46% 89 29.79 0.0
12 17:55 S 17 10.00 Fair CLR 87.8 64.4 46% 89 29.81 0.0
12 17:35 S 9 10.00 Fair CLR 84.2 68 58% 87 29.82 0.0
12 17:15 SE 7 10.00 A Few Clouds FEW120 82.4 66.2 58% 85 29.82 0.0
12 16:55 SW 5 10.00 Partly Cloudy SCT120 82.4 66.2 58% 85 29.85 0.0
12 16:35 SW 5 10.00 Mostly Cloudy BKN120 80.6 66.2 62% 83 29.85 0.0
12 16:15 S 8 10.00 A Few Clouds FEW120 80.6 64.4 58% 82 29.85 0.0
12 15:55 Vrbl 5 10.00 Fair CLR 78.8 68 70% 81 29.85 0.0
12 15:35 SW 16 G 26 10.00 A Few Clouds FEW110 80.6 64.4 58% 82 29.85 0.0
12 15:15 SW 17 G 28 10.00 Fair CLR 84.2 60.8 45% 84 29.84 0.0
12 14:55 SW 24 G 31 10.00 Fair and Breezy CLR 84.2 60.8 45% 84 29.83 0.0
12 14:35 SW 21 10.00 Fair and Breezy CLR 86 60.8 43% 86 29.83 0.0
12 14:15 SW 22 G 30 10.00 Fair and Breezy CLR 86 59 40% 85 29.81 0.0
12 13:55 SW 28 10.00 Fair and Windy CLR 86 60.8 43% 86 29.79 0.0
12 13:35 S 31 G 41 7.00 A Few Clouds and Windy FEW080 FEW100 80.6 62.6 54% 82 29.76 0.0
12 13:15 SW 24 G 36 10.00 A Few Clouds and Breezy FEW100 86 60.8 43% 86 29.82 0.0
12 12:55 SW 28 G 41 10.00 A Few Clouds and Windy FEW100 87.8 59 38% 87 29.82 0.0
12 12:35 SW 30 10.00 A Few Clouds and Windy FEW110 89.6 60.8 38% 90 29.81 0.0
12 12:15 SW 30 G 40 10.00 A Few Clouds and Windy FEW110 89.6 59 36% 89 29.81 0.0
12 11:55 SW 30 G 36 10.00 Fair and Windy CLR 91.4 60.8 36% 91 29.81 0.0
12 11:35 SW 24 G 35 9.00 Fair and Breezy CLR 89.6 62.6 41% 90 29.82 0.0
12 11:15 SW 23 G 32 10.00 Fair and Breezy CLR 87.8 64.4 46% 89 29.83 0.0
12 10:55 SW 21 10.00 Fair and Breezy CLR 87.8 64.4 46% 89 29.83 0.0
12 10:35 SW 20 G 29 10.00 Fair CLR 86 62.6 46% 87 29.84 0.0
12 10:15 SW 16 G 25 10.00 Fair CLR 84.2 62.6 48% 85 29.84 0.0
12 09:55 SW 17 10.00 Fair CLR 84.2 62.6 48% 85 29.84 0.0
12 09:35 SW 17 10.00 Fair CLR 82.4 62.6 51% 83 29.85 0.0
12 09:15 SW 15 10.00 Fair CLR 80.6 62.6 54% 82 29.86 0.0
12 08:55 SW 13 G 18 10.00 Fair CLR 78.8 62.6 58% 80 29.87 0.0
12 08:35 SW 14 10.00 Fair CLR 77 62.6 61% 79 29.87 0.0
12 08:15 S 10 10.00 Fair CLR 75.2 62.6 65% 77 29.87 0.0
12 07:55 S 9 10.00 Fair CLR 73.4 60.8 65% 29.87 0.0
12 07:35 S 12 10.00 Fair CLR 71.6 60.8 69% 29.87 0.0
12 07:15 S 9 10.00 Fair CLR 71.6 59 65% 29.87 0.0
12 06:55 S 6 10.00 Fair CLR 68 59 73% 29.87 0.0
12 06:35 SE 6 10.00 Fair CLR 66.2 59 78% 29.87 0.0
12 06:15 S 7 10.00 Fair CLR 64.4 59 83% 29.88 0.0
12 05:55 S 7 10.00 Fair CLR 62.6 59 88% 29.88 0.0
12 05:35 SE 7 10.00 A Few Clouds FEW110 62.6 59 88% 29.89 0.0
12 05:15 S 6 10.00 Partly Cloudy SCT110 60.8 59 94% 29.89 0.0
12 04:55 S 7 10.00 Mostly Cloudy BKN120 60.8 59 94% 29.89 0.0
12 04:35 S 6 10.00 Overcast OVC110 60.8 59 94% 29.9 0.0
12 04:15 S 7 10.00 Mostly Cloudy BKN110 60.8 59 94% 29.9 0.0
12 03:55 S 7 10.00 Partly Cloudy SCT120 60.8 59 94% 29.9 0.0
12 03:35 S 6 10.00 Fair CLR 60.8 59 94% 29.89 0.0
12 03:15 S 6 10.00 Fair CLR 59 59 100% 29.89 0.0
12 02:55 S 7 10.00 Fair CLR 60.8 57.2 88% 29.89 0.0
12 02:35 SE 5 10.00 Fair CLR 62.6 57.2 83% 29.88 0.0
12 02:15 S 6 10.00 NULL NULL 60.8 57.2 88% 29.88 0.0
12 01:55 S 5 10.00 Fair CLR 60.8 57.2 88% 29.88 0.0
12 01:35 S 5 10.00 Fair CLR 60.8 57.2 88% 29.88 0.0
12 01:15 S 5 10.00 Fair CLR 62.6 57.2 83% 29.88 0.0
12 00:55 S 3 10.00 Fair CLR 62.6 55.4 77% 29.88 0.0
12 00:35 S 5 10.00 Fair CLR 62.6 55.4 77% 29.88 0.0
12 00:15 S 7 10.00 Fair CLR 62.6 57.2 83% 29.88 0.0
11 23:55 Calm 10.00 Fair CLR 66.2 53.6 64% 29.87 0.0
11 23:35 Calm 10.00 Fair CLR 66.2 55.4 68% 29.88 0.0
11 23:15 Calm 10.00 Fair CLR 68 53.6 60% 29.87 0.0
11 22:55 Calm 10.00 Fair CLR 66.2 53.6 64% 29.87 0.0
11 22:35 Calm 10.00 Fair CLR 68 51.8 56% 29.87 0.0
11 22:15 W 5 10.00 Fair CLR 69.8 51.8 53% 29.87 0.0
11 21:55 W 6 10.00 Fair CLR 69.8 51.8 53% 29.86 0.0
11 21:35 W 6 10.00 Fair CLR 69.8 51.8 53% 29.86 0.0
11 21:15 W 6 9.00 Fair CLR 71.6 51.8 50% 29.85 0.0
11 20:55 W 8 9.00 Fair CLR 77 50 39% 78 29.85 0.0
11 20:35 NW 8 10.00 Fair CLR 78.8 48.2 34% 79 29.85 0.0
11 20:15 NW 9 G 15 10.00 Fair CLR 82.4 48.2 30% 81 29.84 0.0
11 19:55 NW 12 G 17 10.00 Fair CLR 84.2 48.2 29% 82 29.84 0.0
11 19:35 W 14 G 22 10.00 Fair CLR 84.2 48.2 29% 82 29.84 0.0
11 19:15 NW 14 G 22 10.00 Fair CLR 86 48.2 27% 83 29.83 0.0
11 18:55 NW 13 G 22 10.00 Fair CLR 86 51.8 31% 84 29.83 0.0
11 18:35 W 16 G 24 10.00 Fair CLR 86 50 29% 84 29.83 0.0
11 17:55 W 18 G 28 10.00 Fair CLR 87.8 50 27% 85 29.83 0.0
11 17:35 NW 17 G 25 10.00 Fair CLR 87.8 51.8 29% 85 29.83 0.0
11 17:15 NW 16 G 30 10.00 A Few Clouds FEW095 87.8 51.8 29% 85 29.83 0.0
11 16:55 NW 15 G 23 10.00 A Few Clouds FEW085 86 53.6 33% 84 29.83 0.0
11 16:35 W 18 G 24 10.00 Partly Cloudy SCT085 87.8 55.4 33% 86 29.83 0.0
11 16:15 NW 21 10.00 Partly Cloudy and Breezy SCT080 87.8 55.4 33% 86 29.83 0.0
11 15:55 NW 15 G 25 10.00 A Few Clouds FEW080 87.8 57.2 35% 87 29.84 0.0
11 15:35 W 15 G 22 10.00 A Few Clouds FEW080 86 57.2 38% 85 29.84 0.0
11 15:15 W 10 G 23 10.00 A Few Clouds FEW075 86 59 40% 85 29.85 0.0
11 14:55 W 17 G 25 10.00 Fair CLR 86 57.2 38% 85 29.85 0.0
11 14:35 NW 17 10.00 Fair CLR 84.2 57.2 40% 83 29.85 0.0
11 14:15 W 16 G 24 10.00 Fair CLR 84.2 59 43% 84 29.85 0.0
11 13:55 W 18 G 26 10.00 A Few Clouds FEW060 84.2 59 43% 84 29.86 0.0
11 13:35 NW 10 G 21 10.00 Fair CLR 82.4 60.8 48% 83 29.86 0.0
11 13:15 W 10 G 21 10.00 Fair CLR 80.6 60.8 51% 81 29.86 0.0
11 12:55 W 13 G 20 10.00 Fair CLR 80.6 60.8 51% 81 29.87 0.0
11 12:35 W 17 10.00 Fair CLR 78.8 62.6 58% 80 29.87 0.0
11 12:15 SW 17 10.00 A Few Clouds FEW037 77 64.4 65% 79 29.88 0.0
11 11:35 SW 15 G 23 10.00 A Few Clouds FEW043 75.2 62.6 65% 77 29.89 0.0
11 11:15 SW 17 G 25 10.00 Fair CLR 71.6 62.6 73% 29.89 0.0
11 10:55 SW 21 G 26 10.00 Fair and Breezy CLR 69.8 60.8 73% 29.89 0.0
11 10:35 S 18 G 25 10.00 Fair CLR 68 62.6 83% 29.89 0.0
11 10:15 S 15 10.00 Partly Cloudy SCT090 64.4 62.6 94% 29.89 0.0
11 09:55 S 16 9.00 A Few Clouds FEW090 62.6 60.8 94% 29.89 0.0 0.02
11 09:30 S 13 10.00 Mostly Cloudy SCT065 BKN100 60.8 60.8 100% 29.9 0.0
11 09:15 S 13 8.00 Partly Cloudy FEW041 FEW048 SCT100 59 59 100% 29.91 0.0
11 08:55 S 12 6.00 Fog/Mist FEW040 FEW048 FEW060 60.8 57.2 88% 29.93 0.0
11 08:35 S 13 8.00 Mostly Cloudy FEW039 SCT060 BKN070 62.6 51.8 68% 29.93 0.0
11 08:15 S 16 9.00 Overcast OVC070 62.6 48.2 60% 29.93 0.0
11 07:55 S 20 10.00 Overcast OVC075 64.4 46.4 52% 29.92 0.0
11 07:35 S 18 10.00 Overcast BKN075 BKN085 OVC110 64.4 46.4 52% 29.92 0.0
11 07:15 S 16 G 22 10.00 Mostly Cloudy FEW080 BKN110 64.4 46.4 52% 29.92 0.0
11 06:55 S 14 G 21 10.00 A Few Clouds FEW110 62.6 46.4 56% 29.92 0.0
11 06:35 S 15 G 22 10.00 A Few Clouds FEW110 62.6 44.6 52% 29.92 0.0
11 06:15 S 14 10.00 Fair CLR 60.8 44.6 55% 29.92 0.0
11 05:35 S 14 10.00 Fair CLR 60.8 44.6 55% 29.93 0.0
11 05:15 S 13 10.00 Fair CLR 60.8 44.6 55% 29.93 0.0
11 04:55 S 13 10.00 A Few Clouds FEW060 60.8 44.6 55% 29.93 0.0
11 04:35 S 12 10.00 Fair CLR 60.8 42.8 52% 29.93 0.0
11 04:15 S 9 10.00 A Few Clouds FEW036 FEW046 FEW060 59 42.8 55% 29.93 0.0
11 03:55 S 8 10.00 Mostly Cloudy FEW036 SCT044 BKN050 60.8 44.6 55% 29.94 0.0
11 03:35 S 9 10.00 Mostly Cloudy FEW037 BKN050 60.8 44.6 55% 29.94 0.0
11 03:15 S 10 10.00 Partly Cloudy FEW037 FEW043 SCT055 59 44.6 59% 29.95 0.0
11 02:55 S 8 10.00 A Few Clouds FEW050 FEW060 59 44.6 59% 29.96 0.0
11 02:35 S 8 10.00 A Few Clouds FEW049 FEW060 59 44.6 59% 29.96 0.0
11 02:15 SE 10 10.00 Fair CLR 59 44.6 59% 29.96 0.0
11 01:55 S 9 0.00 Fair CLR 57.2 44.6 63% 29.97 0.0
11 01:35 S 7 10.00 A Few Clouds FEW042 59 44.6 59% 29.98 0.0
11 01:15 S 8 10.00 Fair CLR 59 44.6 59% 29.98 0.0
11 00:55 S 7 10.00 Fair CLR 60.8 44.6 55% 29.98 0.0
11 00:35 SE 8 10.00 Fair CLR 60.8 42.8 52% 29.98 0.0
11 00:15 S 8 10.00 Fair CLR 60.8 42.8 52% 29.99 0.0
10 23:35 SE 9 10.00 A Few Clouds FEW042 60.8 44.6 55% 29.99 0.0
10 23:15 SE 8 10.00 A Few Clouds FEW045 60.8 44.6 55% 30 0.0
10 22:55 SE 8 10.00 A Few Clouds FEW044 59 44.6 59% 29.99 0.0
10 22:35 SE 6 10.00 A Few Clouds FEW041 60.8 44.6 55% 29.99 0.0
10 22:15 SE 8 10.00 Fair CLR 62.6 42.8 49% 29.99 0.0
10 21:55 SE 8 10.00 Fair CLR 60.8 44.6 55% 29.97 0.0
10 21:35 SE 7 10.00 Fair CLR 62.6 42.8 49% 29.97 0.0
10 21:15 SE 7 10.00 Fair CLR 64.4 42.8 46% 29.96 0.0
10 20:55 SE 7 10.00 Fair CLR 66.2 41 40% 29.96 0.0
10 20:35 SE 6 10.00 Fair CLR 68 41 38% 29.95 0.0
10 20:15 SE 7 10.00 Fair CLR 69.8 41 35% 29.95 0.0
10 19:55 SE 7 10.00 Fair CLR 71.6 41 33% 29.96 0.0
10 19:35 SE 5 10.00 Fair CLR 71.6 41 33% 29.96 0.0
10 19:15 SE 10 10.00 Fair CLR 73.4 39.2 29% 29.95 0.0
10 18:55 SE 9 10.00 Fair CLR 73.4 39.2 29% 29.95 0.0
10 18:35 Vrbl 7 10.00 Fair CLR 75.2 41 29% 77 29.96 0.0
10 18:15 SE 6 10.00 Fair CLR 75.2 39.2 27% 77 29.97 0.0
10 17:55 Vrbl 5 10.00 Fair CLR 75.2 39.2 27% 77 29.98 0.0
10 17:35 Calm 10.00 Fair CLR 73.4 39.2 29% 29.99 0.0
10 17:15 SE 9 10.00 Fair CLR 75.2 39.2 27% 77 29.99 0.0
10 16:55 SE 8 10.00 Fair CLR 75.2 39.2 27% 77 30 0.0
10 16:35 SE 7 10.00 Fair CLR 75.2 41 29% 77 30.01 0.0
10 16:15 Calm 10.00 Fair CLR 73.4 41 31% 30.01 0.0
10 15:55 Vrbl 6 G 13 10.00 Fair CLR 73.4 41 31% 30.02 0.0
10 15:35 Vrbl 6 G 14 10.00 Fair CLR 73.4 41 31% 30.02 0.0
10 15:15 Vrbl 7 10.00 Fair CLR 73.4 41 31% 30.02 0.0
10 14:55 Vrbl 3 10.00 Fair CLR 71.6 41 33% 30.03 0.0
10 14:35 Vrbl 6 G 13 10.00 Fair CLR 71.6 39.2 31% 30.04 0.0
10 14:15 E 10 10.00 Fair CLR 71.6 41 33% 30.04 0.0
10 13:55 E 8 10.00 Fair CLR 71.6 41 33% 30.05 0.0
10 13:35 E 12 10.00 Fair CLR 71.6 41 33% 30.05 0.0
10 13:15 Vrbl 6 10.00 Fair CLR 69.8 42.8 38% 30.06 0.0
10 12:55 E 6 G 13 10.00 Fair CLR 69.8 44.6 40% 30.06 0.0
10 12:35 Vrbl 5 G 14 10.00 Fair CLR 68 44.6 43% 30.08 0.0
10 12:15 Vrbl 3 10.00 Fair CLR 68 44.6 43% 30.08 0.0
10 11:55 E 8 10.00 Fair CLR 68 44.6 43% 30.06 0.0
10 11:35 NE 8 10.00 Fair CLR 66.2 46.4 49% 30.08 0.0
10 11:15 NE 7 G 15 10.00 Fair CLR 66.2 46.4 49% 30.08 0.0
10 10:55 Vrbl 6 G 12 10.00 Fair CLR 66.2 46.4 49% 30.09 0.0
10 10:35 NE 7 G 13 10.00 Fair CLR 64.4 46.4 52% 30.1 0.0
10 10:15 NE 6 10.00 Partly Cloudy SCT039 64.4 44.6 49% 30.1 0.0
10 09:55 E 7 10.00 Overcast OVC039 64.4 44.6 49% 30.1 0.0
10 09:35 NE 8 10.00 Overcast OVC039 62.6 48.2 60% 30.1 0.0
10 09:15 E 6 10.00 Overcast OVC038 62.6 50 64% 30.1 0.0
10 08:55 Calm 0.00 Overcast OVC037 60.8 53.6 77% 30.1 0.0
10 08:35 NE 8 10.00 Overcast OVC037 60.8 55.4 83% 30.1 0.0
10 08:15 E 10 10.00 Overcast OVC037 60.8 57.2 88% 30.1 0.0
10 07:55 NE 8 10.00 Mostly Cloudy BKN038 59 59 100% 30.09 0.0
10 07:35 NE 9 10.00 A Few Clouds FEW038 59 59 100% 30.1 0.0
10 07:15 N 5 10.00 Fair CLR 57.2 57.2 100% 30.1 0.0
10 06:55 N 3 10.00 Fair CLR 55.4 55.4 100% 30.09 0.0
10 06:35 Calm 10.00 Fair CLR 53.6 53.6 100% 30.08 0.0
10 06:15 N 3 10.00 Fair CLR 51.8 51.8 100% 30.08 0.0
10 05:55 N 3 10.00 Fair CLR 51.8 51.8 100% 30.08 0.0
10 05:35 NE 6 10.00 Fair CLR 50 50 100% 48 30.07 0.0
10 05:15 NE 3 10.00 Fair CLR 50 50 100% 30.07 0.0
10 04:55 N 6 10.00 Fair CLR 50 50 100% 48 30.06 0.0
10 04:35 N 5 10.00 Fair CLR 51.8 51.8 100% 30.06 0.0
10 04:15 N 5 10.00 Fair CLR 53.6 53.6 100% 30.06 0.0
10 03:55 N 5 10.00 Fair CLR 53.6 53.6 100% 30.06 0.0
Date Time (cdt) Wind (mph) Vis. (mi.) Weather Sky Cond. Air Dwpt Max. Min. Relative Humidity Wind Chill (°F) Heat Index (°F) altimeter (in) sea level (mb) 1 hr 3 hr 6 hr
6 hour
Temperature (ºF) Pressure Precipitation (in)